Погода в Череповеце

Хотите узнать прогноз погоды в Череповеце? Тогда Вам сюда: Погода в Череповеце

Поиск расширенной информации на нашем сайте:

Полезная информация:

Новости сайта



02.01.2020
Опубликован Долгосрочный прогноз погоды по городам России и ближнего зарубежья на январь 2020 года.
Карты: Прогноз на январь и февраль 2020 года, Сравнение прогнозируемой аномалии приземной температуры воздуха на январь 2020 года по разным моделям.




Погода в Череповеце - сегодня

Время (UTC), дата Ветер
(°,м/с) 
Видим.   Явления Облачность Т
(°С)
Тd
(°С)
f(%) Тe
(°С)
Pmin
(гПа)
dP
(гПа)
Po
(мм)
O2
(г/м3)
Тmin Tmax R s Состояние
почвы
15 16.04.21 050 (СВ) 7-10{12}  10 км    3/0 верхняя 
[Ci fib]
+12.4 -9.6 21 +11  1028.3  -0.6  761  294    +13.7       
18 16.04.21 040 (СВ) 4{10}  10 км    3/0 верхняя 
[Ci fib]
+7.5 -9.1 30 +6  1029.1  0.5  761  299           
21 16.04.21 040 (СВ) 10 км    1/0 верхняя 
[Ci fib]
+5.4 -8.1 37 +4  1030.3  1.1  762  302           
00 17.04.21 040 (СВ) 10 км    1/0 верхняя 
[Ci fib]
+2.8 -7.8 46 +1  1030.7  0.3  762  305           
03 17.04.21 040 (СВ) 10 км    3/0 верхняя 
[Ci fib]
+2 -7.3 50 1030.7  762  306  +1.5        замёрзшая 
06 17.04.21 030 (СВ) 10 км    3/0 верхняя 
[Ci fib]
+8.5 -6.1 35 +7  1030.8  0.4  762  299           
09 17.04.21 060 (СВ) 5{11}  10 км    3/0 верхняя 
[Ci fib]
+13.2 -6.5 25 +12  1030.3  -0.3  762  294           
12 17.04.21 070 (В) 10 км    1/0 верхняя 
[Ci fib]
+14.1 -5.5 25 +14  1028.8  -1.4  761  292           
15 17.04.21 030 (СВ) 10 км    1/0 верхняя 
[Ci fib]
+13.7 -8 21 +13  1027.6  -1.3  760  292    +14.8       
18 17.04.21 020 (С) 10 км    3/0 верхняя 
[Ci fib]
+6.3 -5.6 42 +5  1028  0.1  760  300           
21 17.04.21 020 (С) 10 км    3/0 верхняя 
[Ci fib]
+6.5 -4.8 44 +6  1028  760  300           
00 18.04.21 020 (С) 10 км    3/0 верхняя 
[Ci fib]
+0.3 -4 73 1028.5  0.1  760  306           
03 18.04.21 020 (С) 10 км    4/0 верхняя 
[Ci fib]
+1 -4.3 68 1028.6  0.1  760  306  -1.2        замёрзшая 
06 18.04.21 040 (СВ) 10 км    8/0 средняя, верхняя 
[Ac trans|Ci fib]
+8.1 -4.3 41 +7  1028.3  0.2  760  298           
09 18.04.21 030 (СВ) 10 км    9/3 1000 м средняя 
[Sc|Ac trans]
+13 -4.6 29 +12  1027.9  -0.2  760  293           
12 18.04.21 030 (СВ) 9-12{12}  10 км    8/3 1000 м средняя 
[Sc|Ac trans]
+13.1 -3.1 32 +12  1027.4  -0.5  760  292           
15 18.04.21 040 (СВ) 6{12}  10 км    8/4 1000 м средняя, верхняя 
[Sc|Ac trans|Ci fib]
+11.8 -1.2 40 +11  1027.1  -0.3  760  294    +14.1       
18 18.04.21 050 (СВ) 4{10}  10 км    8/0 средняя, верхняя 
[Ac trans|Ci fib]
+7.2 -3 48 +6  1028.7  1.3  761  299           
21 18.04.21 040 (СВ) 10 км    3/0 верхняя 
[Ci fib]
+3.6 -4.5 55 +2  1029.9  761  303           
00 19.04.21 040 (СВ) 10 км    3/0 верхняя 
[Ci fib]
+1.2 -7.1 54 1030.5  0.4  762  306           
03 19.04.21 050 (СВ) 10 км    3/0 средняя, верхняя 
[Ac trans|Ci fib]
-0.1 -7.3 58 -2  1030.8  0.3  762  308  -0.6        замёрзшая 
06 19.04.21 050 (СВ) 10 км    1/0 средняя 
[Ac trans]
+5.1 -7.6 39 +3  1031.1  0.6  762  302           
09 19.04.21 070 (В) 6{11}  10 км    1/0 средняя 
[Ac trans]
+8.4 -8.3 30 +7  1030.5  -0.4  762  299           
12 19.04.21 090 (В) 7-10{11}  10 км    ясно 
+9.7 -8.6 27 +8  1029.7  -0.8  761  297           
15 19.04.21 080 (В) 5{10}  10 км    3/0 верхняя 
[Ci fib]
+9.1 -8.9 27 +8  1029.1  -0.6  761  298    +10.3       
Время (UTC), дата Ветер
(°,м/с) 
Видим.   Явления Облачность Т
(°С)
Тd
(°С)
f(%) Тe
(°С)
Pmin
(гПа)
dP
(гПа)
Po
(мм)
O2
(г/м3)
Тmin Tmax R s Состояние
почвы

Для получения пояснительной информации подведите курсор к названию столбца.

ПОГОДА в Череповеце - архив

Всё, что Вы хотите узнать о погоде в Череповеце - удобно и подробно!

Выберите нужную дату (начиная с 1 января 2019* года) и нажмите кнопку "Найти".
Будут отображены архивные сводки погоды по пункту Череповец, начиная с указанной даты.


Отображать данные в формате CSV (для использования в таблицах Excel)


Внимание! Наш архив погоды предназначен исключительно для личного некоммерческого использования в познавательных целях. Если Вам необходимы официальные справки о состоянии погоды (для производственных, юридических, коммерческих и т.п. целей), обращайтесь в органы Росгидромета.

*Примечание: данная дата относится к архиву по метеостанциям СССР (Россия, СНГ, Балтия).
Архив по метеостанциям Зарубежной Европы и Азии (кроме Китая) хранится 10 дней, по другим регионам земного шара (Китай, Африка, Америка, Австралия, Океания) - 1 день.

Череповец - район местоположения метеостанции


Название, широта, долгота, высота метеостанции:
Череповец 59.2°ш. 38°д. 114 м над ур. моря [Российская Федерация]

Дополнительная информация

В oтличие oт бoльшинства пoгoдных сайтoв мы публикуем пoдрoбную метеoинфoрмацию в детальнoм прoфессиoнальнoм фoрмате.

Характеристики температуры и влажнoсти вoздуха измеряются на высoте 2 м в тени вдали oт зданий и деревьев.
Скoрoсть ветра измеряется на высoте 10 м (на урoвне рoста челoвека скoрoсть ветра ниже в 1.5-2 раза). Если метеoстанция нахoдится в гoрoде или в лесу, тo скoрoсть ветра занижена на 2-4 м/с пo сравнению с oткрытым местoм. Скoрoсть ветра над акватoриями крупных рек и oзёр, а также на вершинах хoлмoв на 2-5 м/с выше, чем в oбычных услoвиях.
Атмoсфернoе давление в разных тoчках местнoсти мoжет значительнo oтличаться oт давления на метеoстанции, в зависимoсти oт услoвий рельефа (при пoдъёме на 10 м давление пoнижается примернo на 1 мм рт.ст.).